Lid_Strength_Index
4 4 4 4 3 4 4 4 4 4 4 4 4 4 4 4 4 6 8 5 5 3 2 4 5 7 8 8 8 8 11 13 12 12 11 8 8 6 6 7 8 6 4 3 2
3 3 4 4 4 3 4 4 4 4 4 4 4 5 5 5 7 8 5 4 2 2 6 8 8 9 10 9 9 9 12 12 10 9 10 8 8 8 7 6 8 7 4 3 2
3 3 3 3 3 3 3 3 3 4 4 4 4 5 5 5 9 9 5 3 2 2 7 8 8 9 11 10 10 11 12 11 10 9 9 9 9 7 8 8 6 8 6 4 3
3 3 3 3 3 3 3 3 3 3 4 4 4 5 5 6 13 3 2 3 2 3 8 9 9 11 12 12 11 13 11 10 10 9 9 10 8 9 8 7 5 7 7 7 3
3 3 3 3 3 3 3 3 3 3 4 4 4 4 6 10 10 5 1 1 3 6 9 9 11 11 12 12 11 12 11 10 9 9 10 9 10 10 10 7 6 7 7 8 7
3 3 3 3 3 3 3 3 3 3 3 4 4 4 8 12 7 4 5 3 3 5 8 9 10 10 11 11 11 10 10 10 10 10 10 11 11 10 9 7 7 7 7 7 6
4 3 3 3 3 3 3 3 3 3 3 3 3 4 8 9 6 5 2 3 4 5 8 9 8 10 10 11 9 9 10 8 9 10 11 11 13 12 9 7 7 7 7 7 5
4 3 3 3 3 3 3 3 3 3 2 3 3 4 9 5 5 6 5 5 4 5 7 7 8 9 10 9 9 10 10 12 9 9 9 11 13 9 7 7 7 6 7 7 5
4 4 3 4 3 3 3 3 3 2 2 3 4 6 9 4 6 6 5 6 5 6 7 7 8 10 10 10 10 10 12 11 10 9 10 11 11 7 6 6 6 5 7 6 6
4 3 3 3 3 3 3 3 3 2 2 3 4 8 6 8 6 5 5 4 7 7 9 10 10 12 11 11 13 12 12 11 11 9 10 10 9 6 5 6 6 5 6 7 6
4 4 4 3 3 3 3 5 6 6 5 7 7 7 5 4 4 6 6 7 7 9 12 10 12 13 11 10 9 9 10 10 9 7 8 8 8 7 6 6 5 5 6 5 5
4 4 3 3 3 3 3 6 6 5 9 5 5 6 4 4 7 7 6 9 10 12 11 12 12 9 8 8 9 9 10 10 8 7 8 8 8 6 6 6 6 5 4 4 5
4 3 3 3 2 4 5 5 3 5 9 8 6 6 6 5 7 8 7 8 10 11 11 10 9 7 8 9 9 9 10 10 9 8 7 8 9 8 7 6 6 5 4 4 4
4 3 3 2 4 4 5 3 3 4 11 9 8 6 5 5 7 3 5 8 9 10 10 10 7 8 8 9 8 11 7 8 9 10 12 9 12 9 7 7 6 5 5 4 4
4 3 3 2 4 5 3 2 3 5 18 8 8 4 5 7 7 6 6 7 10 9 8 9 9 9 9 8 7 9 7 8 8 9 10 10 11 9 8 8 7 6 5 4 4
4 4 3 3 3 3 2 3 4 12 18 11 7 8 8 7 8 6 7 6 6 8 8 8 6 7 7 7 7 7 8 10 10 10 13 10 11 11 9 8 7 6 5 5 4
3 3 3 2 5 2 3 5 11 16 9 12 11 8 9 9 8 8 8 9 10 12 12 9 8 7 6 8 7 9 10 13 14 13 14 11 12 10 8 7 7 6 5 5 4
4 4 3 2 2 2 3 8 15 11 12 9 10 10 11 8 8 8 9 10 8 9 11 12 13 9 7 8 9 9 9 12 16 15 13 11 12 9 7 6 6 5 5 5 4
4 4 5 4 3 3 6 13 12 11 9 10 10 12 11 9 9 9 10 10 8 8 11 12 12 7 7 7 7 10 11 9 12 12 13 11 10 8 7 7 6 6 5 5 5
5 6 6 4 3 4 8 12 11 8 8 8 13 11 13 11 12 11 11 10 10 8 7 9 13 9 8 7 7 8 8 12 11 16 17 14 13 11 10 9 7 7 6 6 5
5 7 4 4 3 6 11 11 9 6 7 9 11 12 12 13 12 12 12 10 9 9 7 9 11 11 9 10 11 10 11 11 11 12 16 16 13 8 9 8 7 7 6 6 5
6 9 4 4 8 7 10 9 8 8 7 8 8 9 11 11 11 12 12 10 7 8 11 9 11 14 12 9 8 9 11 11 15 16 14 15 14 8 8 7 6 6 6 5 4
8 8 2 3 11 10 8 9 7 8 8 8 9 8 8 10 12 11 10 8 7 8 10 9 13 17 14 11 9 11 11 11 11 12 15 17 14 8 8 7 6 6 6 5 4
7 10 6 5 6 9 10 9 9 6 8 8 8 8 9 10 9 11 11 9 7 8 7 8 11 13 16 13 11 13 11 10 11 15 14 14 12 10 8 8 7 6 5 5 4
7 8 7 10 9 9 8 9 10 10 8 8 8 9 9 11 11 11 10 10 8 7 8 9 13 12 12 11 11 12 12 11 12 11 14 12 11 9 7 7 6 5 6 5 5
7 8 6 8 7 9 9 10 10 9 8 9 9 9 9 10 10 11 10 9 10 8 9 9 13 12 13 11 11 12 11 10 10 11 11 11 11 7 6 6 6 6 5 5 5
4 4 6 8 8 10 9 9 9 8 8 7 8 9 9 9 7 7 7 7 8 9 10 10 11 12 14 12 12 13 11 10 10 9 9 12 9 7 8 7 6 6 6 5 6